Taylorville, IL

7:38 PM CST on December 14, 2017 (GMT -0600)
Taylorville Municipal

Weather History for KTAZ - November, 2013

Change the Weather History Date:

Wednesday, November 27, 2013

  Actual Average (KSPI) Record (KSPI)
Temperature  
Mean Temperature 21 °F -  
Max Temperature 28 °F 45 °F 73 °F (1989)
Min Temperature 14 °F 31 °F 6 °F (1898)
Degree Days  
Heating Degree Days 44    
Moisture  
Dew Point 8 °F    
Average Humidity 61    
Maximum Humidity 79    
Minimum Humidity 43    
Precipitation  
Precipitation 0.00 in - - ()
Sea Level Pressure  
Sea Level Pressure 30.27 in    
Wind  
Wind Speed 12 mph (NW)    
Max Wind Speed 20 mph    
Max Gust Speed 23 mph    
Visibility 10 miles    
Events      
Averages and records for this station are not official NWS values.
T = Trace of Precipitation, MM = Missing Value Source: NWS Daily Summary

Daily Weather History Graph

Daily Weather History Graph

Search for Another Location

Airport or City:

Trip Planner

Search our weather history database for the weather conditions in past years. The results will help you decide how hot, cold, wet, or windy it might be!

Date:

Astronomy

Nov. 27, 2013 Rise Set
Actual Time 6:54 AM CST 4:35 PM CST
Civil Twilight 6:25 AM CST 5:04 PM CST
Nautical Twilight 5:52 AM CST 5:37 PM CST
Astronomical Twilight 5:19 AM CST 6:10 PM CST
Moon 12:58 AM CST (11/27) 1:11 PM CST (11/27)
Length of Visible Light 10h 39m
Length of Day
9h 40m
Waning Crescent, 31% of the Moon is Illuminated
Nov 27
Waning Crescent
Dec 2
New
Dec 9
First Quarter
Dec 17
Full
Dec 25
Last Quarter

Hourly Weather History & Observations

Time (CST) Temp. Windchill Dew Point Humidity Pressure Visibility Wind Dir Wind Speed Gust Speed Precip Events Conditions
12:15 AM 19.4 °F 6.0 °F 8.6 °F 63% 30.20 in 10.0 mi NNW 13.8 mph 21.9 mph N/A   Clear
12:35 AM 19.4 °F 3.6 °F 8.6 °F 63% 30.20 in 10.0 mi NNW 19.6 mph 23.0 mph N/A   Clear
12:55 AM 19.4 °F 6.0 °F 8.6 °F 63% 30.20 in 10.0 mi NNW 13.8 mph 18.4 mph N/A   Clear
1:15 AM 19.4 °F 5.0 °F 8.6 °F 63% 30.20 in 10.0 mi NNW 16.1 mph - N/A   Clear
1:35 AM 19.4 °F 5.5 °F 8.6 °F 63% 30.21 in 10.0 mi NNW 15.0 mph - N/A   Clear
1:55 AM 17.6 °F 2.7 °F 8.6 °F 68% 30.21 in 10.0 mi NNW 16.1 mph 20.7 mph N/A   Clear
2:15 AM 17.6 °F 4.3 °F 8.6 °F 68% 30.22 in 10.0 mi NNW 12.7 mph - N/A   Clear
2:35 AM 17.6 °F 3.2 °F 8.6 °F 68% 30.22 in 10.0 mi NNW 15.0 mph 19.6 mph N/A   Clear
2:55 AM 17.6 °F 3.7 °F 8.6 °F 68% 30.22 in 10.0 mi NNW 13.8 mph - N/A   Clear
3:15 AM 17.6 °F 3.7 °F 8.6 °F 68% 30.22 in 10.0 mi NNW 13.8 mph - N/A   Clear
3:35 AM 17.6 °F 3.7 °F 6.8 °F 63% 30.22 in 10.0 mi NW 13.8 mph - N/A   Clear
3:55 AM 17.6 °F 3.2 °F 6.8 °F 63% 30.23 in 10.0 mi NNW 15.0 mph 20.7 mph N/A   Clear
4:15 AM 17.6 °F 5.0 °F 6.8 °F 63% 30.23 in 10.0 mi NNW 11.5 mph 17.3 mph N/A   Clear
4:35 AM 15.8 °F 2.1 °F 6.8 °F 68% 30.23 in 10.0 mi NNW 12.7 mph 18.4 mph N/A   Clear
4:55 AM 15.8 °F 1.4 °F 5.0 °F 62% 30.24 in 10.0 mi NW 13.8 mph 19.6 mph N/A   Clear
5:15 AM 15.8 °F 2.1 °F 5.0 °F 62% 30.24 in 10.0 mi NW 12.7 mph - N/A   Clear
5:35 AM 15.8 °F 2.1 °F 5.0 °F 62% 30.25 in 10.0 mi NNW 12.7 mph - N/A   Clear
5:55 AM 15.8 °F 0.9 °F 5.0 °F 62% 30.25 in 10.0 mi NNW 15.0 mph - N/A   Clear
6:15 AM 15.8 °F 1.4 °F 5.0 °F 62% 30.26 in 10.0 mi NNW 13.8 mph - N/A   Clear
6:35 AM 14.0 °F -0.2 °F 5.0 °F 67% 30.26 in 10.0 mi NW 12.7 mph - N/A   Clear
6:55 AM 14.0 °F 0.5 °F 5.0 °F 67% 30.28 in 10.0 mi NW 11.5 mph - N/A   Clear
7:15 AM 14.0 °F -0.8 °F 5.0 °F 67% 30.27 in 10.0 mi NNW 13.8 mph - N/A   Clear
7:35 AM 15.8 °F 1.4 °F 5.0 °F 62% 30.28 in 10.0 mi NW 13.8 mph - N/A   Clear
7:55 AM 15.8 °F 1.4 °F 6.8 °F 68% 30.29 in 10.0 mi NW 13.8 mph - N/A   Clear
8:15 AM 17.6 °F 5.0 °F 6.8 °F 63% 30.29 in 10.0 mi NW 11.5 mph - N/A   Clear
8:35 AM 17.6 °F 2.7 °F 6.8 °F 63% 30.30 in 10.0 mi NNW 16.1 mph 21.9 mph N/A   Clear
8:55 AM 19.4 °F 5.0 °F 6.8 °F 58% 30.30 in 10.0 mi NNW 16.1 mph - N/A   Clear
9:15 AM 19.4 °F 4.5 °F 6.8 °F 58% 30.31 in 10.0 mi NNW 17.3 mph 21.9 mph N/A   Clear
9:35 AM 19.4 °F 6.6 °F 8.6 °F 63% 30.31 in 10.0 mi NW 12.7 mph - N/A   Clear
9:55 AM 21.2 °F 6.8 °F 8.6 °F 58% 30.31 in 10.0 mi NNW 17.3 mph - N/A   Clear
10:15 AM 21.2 °F 8.3 °F 8.6 °F 58% 30.30 in 10.0 mi NW 13.8 mph - N/A   Clear
10:35 AM 23.0 °F 9.6 °F 8.6 °F 54% 30.30 in 10.0 mi NNW 16.1 mph 20.7 mph N/A   Clear
10:55 AM 23.0 °F 9.6 °F 8.6 °F 54% 30.29 in 10.0 mi NNW 16.1 mph 20.7 mph N/A   Clear
11:15 AM 23.0 °F 10.1 °F 6.8 °F 50% 30.29 in 10.0 mi NNW 15.0 mph 20.7 mph N/A   Clear
11:35 AM 23.0 °F 11.1 °F 8.6 °F 54% 30.28 in 10.0 mi NW 12.7 mph 20.7 mph N/A   Clear
11:55 AM 24.8 °F 12.4 °F 8.6 °F 50% 30.28 in 10.0 mi NW 15.0 mph 19.6 mph N/A   Clear
12:15 PM 24.8 °F 12.9 °F 6.8 °F 46% 30.27 in 10.0 mi NW 13.8 mph - N/A   Clear
12:35 PM 26.6 °F 14.7 °F 8.6 °F 47% 30.27 in 10.0 mi NNW 15.0 mph - N/A   Clear
12:55 PM 26.6 °F 16.8 °F 6.8 °F 43% 30.26 in 10.0 mi NW 10.4 mph - N/A   Clear
1:15 PM 26.6 °F 16.8 °F 8.6 °F 47% 30.27 in 10.0 mi NNW 10.4 mph 16.1 mph N/A   Clear
1:35 PM 26.6 °F 15.2 °F 8.6 °F 47% 30.27 in 10.0 mi NW 13.8 mph - N/A   Clear
1:55 PM 28.4 °F 19.7 °F 8.6 °F 43% 30.27 in 10.0 mi NNW 9.2 mph - N/A   Clear
2:15 PM 28.4 °F 18.0 °F 8.6 °F 43% 30.27 in 10.0 mi NNW 12.7 mph - N/A   Clear
2:35 PM 28.4 °F 19.1 °F 8.6 °F 43% 30.27 in 10.0 mi West 10.4 mph - N/A   Clear
2:55 PM 28.4 °F 20.4 °F 8.6 °F 43% 30.28 in 10.0 mi WNW 8.1 mph - N/A   Clear
3:15 PM 28.4 °F 19.1 °F 8.6 °F 43% 30.27 in 10.0 mi WNW 10.4 mph - N/A   Clear
3:35 PM 28.4 °F 19.7 °F 8.6 °F 43% 30.28 in 10.0 mi NW 9.2 mph - N/A   Clear
3:55 PM 26.6 °F 17.5 °F 8.6 °F 47% 30.28 in 10.0 mi WNW 9.2 mph - N/A   Clear
4:15 PM 26.6 °F 19.1 °F 8.6 °F 47% 30.28 in 10.0 mi WNW 6.9 mph - N/A   Clear
4:35 PM 26.6 °F 20.0 °F 8.6 °F 47% 30.28 in 10.0 mi WNW 5.8 mph - N/A   Clear
4:55 PM 26.6 °F 18.2 °F 8.6 °F 47% 30.28 in 10.0 mi WNW 8.1 mph - N/A   Clear
5:15 PM 24.8 °F 17.9 °F 8.6 °F 50% 30.28 in 10.0 mi West 5.8 mph - N/A   Clear
5:35 PM 23.0 °F 18.4 °F 8.6 °F 54% 30.28 in 10.0 mi WSW 3.5 mph - N/A   Clear
5:55 PM 23.0 °F 18.4 °F 10.4 °F 59% 30.29 in 10.0 mi West 3.5 mph - N/A   Clear
6:15 PM 23.0 °F 17.0 °F 10.4 °F 59% 30.29 in 10.0 mi WSW 4.6 mph - N/A   Clear
6:35 PM 21.2 °F 14.9 °F 10.4 °F 63% 30.29 in 10.0 mi WSW 4.6 mph - N/A   Clear
6:55 PM 23.0 °F 18.4 °F 10.4 °F 59% 30.29 in 10.0 mi WSW 3.5 mph - N/A   Clear
7:15 PM 19.4 °F 12.8 °F 12.2 °F 74% 30.30 in 10.0 mi WSW 4.6 mph - N/A   Clear
7:35 PM 19.4 °F - 12.2 °F 74% 30.29 in 10.0 mi Calm Calm - N/A   Clear
7:55 PM 19.4 °F 11.5 °F 12.2 °F 74% 30.30 in 10.0 mi SW 5.8 mph - N/A   Clear
8:15 PM 19.4 °F 14.3 °F 10.4 °F 68% 30.29 in 10.0 mi South 3.5 mph - N/A   Clear
8:35 PM 19.4 °F 14.3 °F 10.4 °F 68% 30.29 in 10.0 mi South 3.5 mph - N/A   Clear
8:55 PM 17.6 °F 10.7 °F 10.4 °F 73% 30.29 in 10.0 mi SSW 4.6 mph - N/A   Clear
9:15 PM 19.4 °F 14.3 °F 12.2 °F 74% 30.29 in 10.0 mi SSW 3.5 mph - N/A   Clear
9:35 PM 19.4 °F - 10.4 °F 68% 30.29 in 10.0 mi Calm Calm - N/A   Clear
9:55 PM 17.6 °F 12.3 °F 10.4 °F 73% 30.30 in 10.0 mi South 3.5 mph - N/A   Clear
10:15 PM 17.6 °F 10.7 °F 10.4 °F 73% 30.30 in 10.0 mi South 4.6 mph - N/A   Clear
10:35 PM 17.6 °F 10.7 °F 10.4 °F 73% 30.29 in 10.0 mi South 4.6 mph - N/A   Clear
10:55 PM 17.6 °F - 10.4 °F 73% 30.29 in 10.0 mi Calm Calm - N/A   Clear
11:15 PM 17.6 °F 9.3 °F 12.2 °F 79% 30.29 in 10.0 mi South 5.8 mph - N/A   Clear
11:35 PM 17.6 °F 9.3 °F 12.2 °F 79% 30.28 in 10.0 mi South 5.8 mph - N/A   Clear
11:55 PM 17.6 °F 8.2 °F 12.2 °F 79% 30.27 in 10.0 mi South 6.9 mph - N/A   Clear